Date,TemperatureHighF,TemperatureAvgF,TemperatureLowF,DewpointHighF,DewpointAvgF,DewpointLowF,HumidityHigh,HumidityAvg,HumidityLow,PressureMaxIn,PressureMinIn,WindSpeedMaxMPH,WindSpeedAvgMPH,GustSpeedMaxMPH,PrecipitationSumIn
2013-8-1,86,67,46,54,50,44,96,59,31,29.92,29.81,12,2,16,0.00
2013-8-2,90,68,47,54,49,44,94,57,25,29.86,29.74,12,1,17,0.00
2013-8-3,86,62,47,56,51,45,96,72,36,29.85,29.78,17,2,18,0.00
2013-8-4,81,61,52,56,52,50,93,76,40,29.89,29.81,12,1,17,0.00
2013-8-5,80,61,52,57,52,49,94,75,41,29.91,29.81,9,1,16,0.00
2013-8-6,80,60,52,56,51,48,94,76,41,29.94,29.85,15,1,18,0.00
2013-8-7,75,63,53,56,53,49,90,71,51,29.98,29.91,12,1,15,0.00
2013-8-8,79,63,53,58,54,50,95,75,47,29.92,29.81,15,1,16,0.00
2013-8-9,78,62,52,57,53,51,95,75,46,29.88,29.78,11,1,20,0.00
2013-8-10,82,65,56,58,54,52,89,72,43,29.92,29.86,11,2,17,0.00
2013-8-11,86,65,55,60,55,51,96,74,39,29.90,29.79,11,2,17,0.00
2013-8-12,87,63,53,58,53,50,98,75,35,29.88,29.80,10,1,16,0.00
2013-8-13,96,69,51,56,52,48,99,64,20,29.86,29.76,12,1,16,0.00
2013-8-14,97,70,48,58,52,46,95,61,23,29.84,29.74,11,1,18,0.00
2013-8-15,95,71,53,64,58,51,96,69,33,29.83,29.76,11,1,15,0.00
2013-8-16,94,72,56,63,58,52,97,67,27,29.85,29.80,12,1,19,0.00
2013-8-17,91,71,52,59,55,50,96,63,30,29.85,29.71,11,1,14,0.00
2013-8-18,99,76,54,61,56,52,93,58,26,29.75,29.65,7,1,17,0.00
2013-8-19,92,72,59,62,57,54,85,62,32,29.78,29.68,10,1,14,0.00
2013-8-20,87,67,58,60,56,54,89,72,34,29.78,29.69,11,1,16,0.00
2013-8-21,84,66,54,57,54,49,86,70,38,29.83,29.73,12,1,15,0.00
2013-8-22,80,63,52,58,53,49,93,73,44,29.85,29.76,15,1,16,0.00
2013-8-23,85,66,52,58,54,48,92,68,38,29.80,29.67,11,1,18,0.00
2013-8-24,90,67,49,58,53,47,97,66,32,29.75,29.68,13,2,18,0.00
2013-8-25,83,68,56,61,56,52,94,70,36,29.82,29.75,11,1,16,0.00
2013-8-26,89,71,60,58,55,45,92,62,25,29.88,29.76,10,1,15,0.00
2013-8-27,92,69,50,56,51,46,92,58,24,29.78,29.67,13,1,15,0.00
2013-8-28,89,69,54,63,58,52,99,73,40,29.82,29.73,13,1,18,0.00
2013-8-29,91,72,60,63,60,57,97,72,36,29.94,29.83,10,1,13,0.00
2013-8-30,98,75,55,61,56,49,98,59,24,29.91,29.77,9,1,12,0.00
2013-8-31,91,70,53,58,53,49,94,60,25,29.85,29.75,12,1,17,0.00